Flag for U.S.A. Weather past 2 weeks in Abilene, Texas, U.S.A.

Now
83 °F

Sunny.


Feels Like: 85 °F
Forecast: 65 / 85 °F
Wind: 12 mph from South

Location: Abilene Regional Airport

Current Time: May 29, 2015 at 3:51:27 PM

Latest Report: May 29, 2015 at 2:52 PM


Visibility: 10 mi

Pressure: 29.89 "Hg

Humidity: 55%

Dew point: 65 °F

Location of AbileneLocation

Historic Weather in Abilene — Graph

°F

Abilene temperature yesterday

Maximum temperature yesterday: 85 °F (at 2:52 PM)
Minimum temperature yesterday: 63 °F (at 10:52 PM)
Average temperature yesterday: 74 °F

Past Weeks' High & Low Weather Summary

 TemperatureHumidityPressure
High90 °F (May 26, 4:52 PM)100% (May 28, 11:52 PM)30.24 "Hg (May 28, 11:52 PM)
Low53 °F (May 21, 6:52 AM)24% (May 17, 6:52 PM)29.60 "Hg (May 16, 6:52 PM)
Average71 °F76%29.91 "Hg
* Reported May 14 2:52 PM — May 29 2:52 PM, Abilene, Weather by CustomWeather, © 2015

Note: Actual official high and low records may vary slightly from our data, if they occured in-between our weather recording intervals... More about our weather records

Advertising

Abilene weather history for previous 24 hours

 ConditionsComfort  
Time TempWeatherWind HumidityBarometerVisibility
2:52 PM
Fri, May 29
83 °FSunny.12 mph55%29.89 "Hg10 mi
1:52 PM80 °FSunny.6 mph52%29.91 "Hg10 mi
12:52 PM76 °FSunny.No wind62%29.93 "Hg10 mi
11:52 AM72 °FSunny.3 mph71%29.95 "Hg10 mi
10:52 AM69 °FSunny.6 mph79%29.96 "Hg10 mi
9:52 AM66 °FSunny.5 mph81%29.94 "Hg10 mi
8:52 AM65 °FSunny.5 mph85%29.93 "Hg10 mi
7:52 AM64 °FSunny.3 mph90%29.93 "Hg10 mi
6:52 AM63 °FPassing clouds.No wind93%29.95 "Hg10 mi
5:52 AM63 °FOvercast.5 mph93%29.90 "Hg10 mi
4:52 AM62 °FPassing clouds.No wind93%29.86 "Hg10 mi
3:52 AM63 °FClear.9 mph93%29.85 "Hg10 mi
2:52 AM64 °FClear.15 mph94%29.88 "Hg10 mi
1:52 AM63 °FClear.14 mph100%29.80 "Hg10 mi
12:52 AM63 °FThunderstorms. Fog.16 mph97%29.90 "Hg10 mi
11:52 PM
Thu, May 28
63 °FThunderstorms. Fog.8 mph100%29.93 "Hg9 mi
10:52 PM63 °FThunderstorms. Fog.7 mph97%29.97 "Hg6 mi
9:52 PM64 °FThunderstorms. Mostly cloudy.5 mph94%29.96 "Hg7 mi
8:52 PM65 °FThunderstorms. More clouds than sun.10 mph91%29.95 "Hg9 mi
7:52 PM65 °FMostly cloudy.9 mph97%29.95 "Hg10 mi
6:52 PM64 °FThunderstorms. Fog.17 mph94%29.91 "Hg1 mi
5:52 PM84 °FCloudy.N/A57%29.89 "Hg10 mi
4:52 PM85 °FScattered clouds.15 mph57%29.87 "Hg10 mi
3:52 PM84 °FMostly cloudy.16 mph57%29.87 "Hg10 mi
Weather by CustomWeather, © 2015

See weather overviewHow to use our weather pages